Flag for Russia Weather past 2 weeks in Surgut, Russia

Now
21 °F

Mostly cloudy.


Feels Like: 9 °F
Forecast: 16 / 27 °F
Wind: 13 mph from South

Location: Surgut Airport

Current Time: Dec 21, 2014 at 4:39:08 PM

Latest Report: Dec 21, 2014 at 4:00 PM


Visibility: 4 mi

Pressure: 29.65 "Hg

Humidity: 86%

Dew point: 18 °F

Location of SurgutLocation

Historic Weather in Surgut — Graph

°F

Surgut temperature yesterday

Maximum temperature yesterday: 21 °F (at 4:30 AM)
Minimum temperature yesterday: 18 °F (at 5:00 PM)
Average temperature yesterday: 20 °F

Past Weeks' High & Low Weather Summary

 TemperatureHumidityPressure
High28 °F (Dec 15, 2:00 AM)100% (Dec 9, 1:00 PM)30.45 "Hg (Dec 9, 1:00 PM)
Low-36 °F (Dec 7, 5:00 AM)66% (Dec 7, 1:00 AM)29.65 "Hg (Dec 21, 3:30 PM)
Average13 °F86%30.09 "Hg
* Reported Dec 6 3:00 PM — Dec 21 3:30 PM, Surgut, Weather by CustomWeather, © 2014

Note: Actual official high and low records may vary slightly from our data, if they occured in-between our weather recording intervals... More about our weather records

Advertising

Surgut weather history for previous 24 hours

 ConditionsComfort  
Time TempWeatherWind HumidityBarometerVisibility
3:30 PM
Dec 21
21 °FMore clouds than sun.10 mph86%29.65 "Hg4 mi
3:00 PM21 °FMore clouds than sun.13 mph86%29.68 "Hg4 mi
2:30 PM21 °FMore clouds than sun.13 mph80%29.68 "Hg4 mi
2:00 PM19 °FMore clouds than sun.13 mph86%29.68 "Hg4 mi
1:30 PM19 °FLow clouds.13 mph93%29.71 "Hg4 mi
1:00 PM19 °FLow clouds.13 mph93%29.71 "Hg4 mi
12:30 PM19 °FLow clouds.13 mph93%29.71 "Hg4 mi
12:00 PM19 °FLow clouds.13 mph93%29.74 "Hg4 mi
11:30 AM19 °FIce fog.13 mph93%29.74 "Hg3 mi
11:00 AM19 °FIce fog.10 mph93%29.74 "Hg3 mi
10:30 AM19 °FLow clouds.10 mph93%29.74 "Hg4 mi
10:00 AM19 °FLow clouds.10 mph93%29.77 "Hg4 mi
9:30 AM19 °FLow clouds.8 mph93%29.74 "Hg4 mi
9:00 AM19 °FLow clouds.10 mph93%29.77 "Hg4 mi
8:30 AM19 °FLow clouds.10 mph93%29.77 "Hg4 mi
8:00 AM19 °FLow clouds.8 mph93%29.77 "Hg4 mi
7:30 AM19 °FLow clouds.6 mph93%29.77 "Hg4 mi
7:00 AM19 °FLow clouds.6 mph93%29.77 "Hg4 mi
6:30 AM19 °FLow clouds.6 mph93%29.77 "Hg4 mi
6:00 AM19 °FLight snow. Low clouds.6 mph93%29.80 "Hg4 mi
5:30 AM19 °FLight snow. Low clouds.6 mph93%29.80 "Hg4 mi
5:00 AM19 °FLight snow. Low clouds.6 mph93%29.80 "Hg4 mi
4:30 AM19 °FLow clouds.3 mph93%29.80 "Hg4 mi
4:00 AM19 °FLight snow. Low clouds.6 mph93%29.80 "Hg4 mi
3:30 AM19 °FLight snow. Low clouds.6 mph93%29.80 "Hg4 mi
3:00 AM19 °FLight snow. Low clouds.3 mph93%29.80 "Hg4 mi
2:30 AM19 °FLow clouds.3 mph93%29.83 "Hg4 mi
2:00 AM19 °FLow clouds.3 mph93%29.83 "Hg4 mi
1:30 AM19 °FLow clouds.3 mph93%29.83 "Hg4 mi
1:00 AM19 °FLow clouds.3 mph93%29.83 "Hg4 mi
12:30 AM19 °FLow clouds.3 mph93%29.83 "Hg4 mi
12:00 AM19 °FLow clouds.3 mph93%29.83 "Hg4 mi
11:30 PM
Dec 20
19 °FLow clouds.3 mph93%29.83 "Hg4 mi
11:00 PM19 °FLow clouds.6 mph93%29.83 "Hg4 mi
10:30 PM19 °FLow clouds.3 mph93%29.83 "Hg4 mi
10:00 PM19 °FLow clouds.3 mph93%29.83 "Hg4 mi
9:30 PM19 °FOvercast.6 mph93%29.83 "Hg4 mi
9:00 PM19 °FOvercast.6 mph93%29.83 "Hg4 mi
8:30 PM19 °FOvercast.3 mph93%29.86 "Hg4 mi
8:00 PM19 °FOvercast.3 mph93%29.86 "Hg4 mi
7:30 PM19 °FOvercast.6 mph93%29.86 "Hg4 mi
7:00 PM19 °FOvercast.6 mph93%29.86 "Hg4 mi
6:30 PM19 °FPartly cloudy.3 mph93%29.86 "Hg4 mi
6:00 PM18 °FPartly cloudy.3 mph100%29.86 "Hg4 mi
5:30 PM18 °FPartly cloudy.3 mph93%29.86 "Hg4 mi
5:00 PM18 °FLight snow. Mostly cloudy.3 mph93%29.89 "Hg3 mi
4:30 PM19 °FLight snow. Mostly cloudy.3 mph93%29.89 "Hg3 mi
4:00 PM21 °FLight snow. Mostly cloudy.6 mph86%29.86 "Hg2 mi
Weather by CustomWeather, © 2014

See weather overviewHow to use our weather pages